Location: Redwood Loop Observatory
(43.9900°N, 124.0900°W)
Time: 08:55:34
(UTC-07:00)

OTV 5 (USA 277) - Visible Passes

Search period start: 22 October 2019 00:00
Search period end: 01 November 2019 00:00
Orbit: 310 x 324 km, 54.5° (Epoch: 17 October)

Date Brightness Start Highest point End Pass type
(mag) Time Alt. Az. Time Alt. Az. Time Alt. Az.
27 Oct ? 20:29:26 10° SW 20:29:33 11° SW 20:29:33 11° SW visible
28 Oct ? 19:10:33 10° S 19:12:37 19° SE 19:13:13 18° ESE visible
29 Oct ? 19:24:21 10° SW 19:27:00 52° SE 19:27:41 39° E visible
30 Oct ? 19:38:51 10° WSW 19:41:33 54° NNW 19:42:01 46° N visible
31 Oct ? 19:53:51 10° W 19:56:13 25° NNW 19:56:16 25° NNW visible
